Location: Kunchanapalle
(16.4623°N, 80.6176°E)
Time: 18:17:04
(UTC+00:00)

Nadezhda 1 Rocket - Pass Details

Date: 13 August 2020
Orbit: 940 x 1006 km, 83.0° (Epoch: 17 September)

Event Time Altitude Azimuth Distance (km) Brightness Sun altitude
Rises 23:35:12 0° 187° (S) 3,715 6.8 -11.4°
Reaches altitude 10° 23:37:43 10° 188° (S) 2,770 6.1 -10.9°
Maximum altitude 23:44:05 76° 274° (W) 1,034 4.0 -9.4°
Drops below altitude 10° 23:50:28 10° 360° (N) 2,771 6.6 -7.9°
Sets 23:53:00 0° 2° (N) 3,717 7.3 -7.4°
